�N����,����,�~����,�C��,���x,�C��,����,���ϕ���,�ő�u�ԕ���,�ő厞����,���˗�,�I�_���x,�n�����x,�ő啗���N��,DTYPE
"21/08/12","00:10",0.0,24.9,81.0,1007.1,333.2,1.3,2.1,354.9,0.00,21.5,26.3,"00:01:28",1
"21/08/12","00:20",0.0,24.9,81.3,1006.9,339.3,0.8,1.4,341.3,0.00,21.5,26.2,"00:15:36",1
"21/08/12","00:30",0.0,24.7,82.0,1006.9,309.9,0.8,1.4,308.8,0.00,21.5,26.4,"00:28:56",1
"21/08/12","00:40",0.0,24.6,82.5,1006.9,322.6,1.1,2.5,330.8,0.00,21.5,26.2,"00:34:48",1
"21/08/12","00:50",0.0,24.5,82.7,1006.9,304.4,1.2,2.7,333.4,0.00,21.4,26.2,"00:44:32",1
"21/08/12","01:00",0.0,24.5,82.9,1006.7,322.6,0.8,1.3,325.5,0.00,21.4,26.3,"00:57:36",1
"21/08/12","01:10",0.0,24.4,83.0,1006.9,292.0,0.6,1.1,339.2,0.00,21.4,26.2,"01:09:20",1
"21/08/12","01:20",0.0,24.3,83.2,1006.7,328.9,0.5,1.1,327.8,0.00,21.3,26.4,"01:14:16",1
"21/08/12","01:30",0.0,24.2,83.5,1006.7,310.7,0.6,1.2,312.7,0.00,21.3,26.2,"01:26:24",1
"21/08/12","01:40",0.0,24.2,83.9,1007.1,332.2,0.6,1.1,327.7,0.00,21.3,26.3,"01:30:40",1
"21/08/12","01:50",0.0,24.1,84.4,1006.9,315.9,0.5,1.1,329.3,0.00,21.3,26.1,"01:40:48",1
"21/08/12","02:00",0.0,24.3,85.2,1007.4,340.8,1.0,1.7,339.5,0.00,21.7,25.9,"01:56:08",1
"21/08/12","02:10",0.0,23.9,85.9,1007.4,286.4,0.6,1.3,302.9,0.00,21.4,26.2,"02:00:24",1
"21/08/12","02:20",0.0,23.8,86.5,1008.1,327.4,1.2,1.9,334.0,0.00,21.5,26.3,"02:14:16",1
"21/08/12","02:30",0.0,23.8,87.0,1007.8,341.2,0.8,1.4,352.7,0.00,21.5,26.2,"02:27:44",1
"21/08/12","02:40",0.0,23.8,87.4,1007.8,334.8,1.0,1.6,336.6,0.00,21.6,25.9,"02:33:12",1
"21/08/12","02:50",0.0,23.7,87.6,1007.8,297.4,0.5,1.3,331.3,0.00,21.6,25.9,"02:40:24",1
"21/08/12","03:00",0.0,23.7,88.0,1007.6,319.8,0.8,1.4,343.3,0.00,21.6,26.0,"02:54:08",1
"21/08/12","03:10",0.0,23.8,88.2,1007.6,302.9,0.3,0.9,255.9,0.00,21.8,26.1,"03:04:56",1
"21/08/12","03:20",0.0,23.8,88.4,1007.8,295.3,0.6,1.1,265.9,0.00,21.8,26.0,"03:16:48",1
"21/08/12","03:30",0.0,23.8,88.5,1007.4,297.8,0.7,1.2,326.4,0.00,21.8,26.0,"03:20:02",1
"21/08/12","03:40",0.0,23.8,88.6,1007.6,316.7,0.6,1.4,337.1,0.00,21.8,26.0,"03:31:12",1
"21/08/12","03:50",0.0,23.8,88.7,1007.8,318.9,0.5,1.1,348.4,0.00,21.9,26.0,"03:48:56",1
"21/08/12","04:00",0.0,23.9,88.7,1007.8,322.0,0.7,1.2,315.6,0.00,22.0,25.8,"03:51:36",1
"21/08/12","04:10",0.0,23.8,88.8,1007.6,248.9,0.2,0.8,270.9,0.00,21.9,25.8,"04:09:04",1
"21/08/12","04:20",0.0,23.8,88.9,1007.8,312.4,0.3,0.8,316.8,0.00,21.9,26.0,"04:11:36",1
"21/08/12","04:30",0.6,23.8,89.0,1007.8,295.9,0.7,1.0,342.5,0.00,21.9,25.7,"04:24:48",1
"21/08/12","04:40",0.0,23.8,89.1,1007.8,342.7,0.3,0.9,327.0,0.00,21.9,26.0,"04:31:04",1
"21/08/12","04:50",0.8,23.7,89.2,1007.8,305.3,0.5,0.8,306.7,0.00,21.9,25.8,"04:40:56",1
"21/08/12","05:00",1.8,23.6,89.3,1008.1,236.8,0.1,0.5,234.1,0.00,21.8,25.8,"04:54:32",1
"21/08/12","05:10",0.6,23.6,89.5,1007.8,348.1,0.2,0.8,67.0,0.00,21.8,25.7,"05:08:40",1
"21/08/12","05:20",0.2,23.4,89.7,1007.6,350.5,0.3,0.9,56.9,0.00,21.7,25.7,"05:15:36",1
"21/08/12","05:30",0.0,23.4,90.0,1007.8,327.9,0.5,0.8,337.8,0.00,21.7,25.7,"05:25:28",1
"21/08/12","05:40",0.0,23.4,90.2,1008.3,321.3,0.5,1.0,339.4,0.00,21.7,25.8,"05:30:56",1
"21/08/12","05:50",0.0,23.3,90.5,1008.3,262.4,0.2,0.5,296.2,0.00,21.7,25.7,"05:49:36",1
"21/08/12","06:00",0.0,23.4,90.7,1008.3,302.0,0.6,1.2,341.7,0.00,21.8,25.9,"05:57:04",1
"21/08/12","06:10",0.0,23.4,91.0,1008.1,298.2,0.5,1.1,345.0,0.00,21.9,25.8,"06:00:48",1
"21/08/12","06:20",0.0,23.5,91.2,1008.1,318.1,0.5,1.4,333.5,0.00,22.0,25.6,"06:16:40",1
"21/08/12","06:30",0.0,23.5,91.4,1008.3,292.5,0.3,0.6,311.6,0.00,22.1,25.6,"06:20:16",1
"21/08/12","06:40",0.0,23.5,91.7,1008.8,295.2,0.5,1.1,336.8,0.00,22.1,25.9,"06:39:44",1
"21/08/12","06:50",0.0,23.7,91.9,1008.3,330.5,1.0,2.0,345.1,0.00,22.3,25.8,"06:46:00",1
"21/08/12","07:00",0.0,23.6,92.0,1008.3,316.1,0.6,1.3,339.3,0.00,22.3,25.5,"06:56:56",1
"21/08/12","07:10",0.0,23.7,92.2,1008.1,287.9,0.5,1.2,343.1,0.00,22.4,25.8,"07:08:40",1
"21/08/12","07:20",0.0,23.8,92.4,1008.3,334.0,0.6,1.2,351.4,0.01,22.5,25.8,"07:18:48",1
"21/08/12","07:30",0.0,24.1,92.6,1008.3,342.9,0.8,1.3,348.1,0.02,22.9,25.7,"07:26:00",1
"21/08/12","07:40",0.0,24.2,92.7,1008.1,316.0,0.7,1.6,343.8,0.05,23.0,25.7,"07:39:28",1
"21/08/12","07:50",0.0,24.2,92.8,1008.3,306.8,1.1,2.0,341.3,0.06,23.0,25.5,"07:40:16",1
"21/08/12","08:00",0.0,24.4,92.9,1008.3,318.0,0.7,1.4,323.8,0.06,23.2,25.7,"07:56:48",1
"21/08/12","08:10",0.0,24.5,93.0,1008.1,310.3,0.6,1.1,331.4,0.05,23.3,25.6,"08:00:32",1
"21/08/12","08:20",0.0,24.5,93.0,1008.1,293.1,0.6,1.3,322.9,0.05,23.3,25.6,"08:14:48",1
"21/08/12","08:30",0.0,24.9,93.1,1007.8,322.6,0.5,1.1,339.7,0.07,23.7,25.7,"08:28:16",1
"21/08/12","08:40",0.0,25.0,93.2,1007.6,318.9,0.6,1.4,333.9,0.09,23.9,25.8,"08:32:00",1
"21/08/12","08:50",0.0,25.0,93.1,1007.8,308.6,0.8,1.9,319.0,0.10,23.8,25.6,"08:45:36",1
"21/08/12","09:00",0.0,25.2,92.9,1007.8,310.6,1.0,1.9,329.6,0.08,24.0,25.5,"08:59:28",1
"21/08/12","09:10",0.0,25.1,93.0,1007.8,325.0,1.0,1.7,328.5,0.08,23.9,25.9,"09:08:24",1
"21/08/12","09:20",0.0,25.2,92.9,1007.4,327.4,0.7,2.1,341.6,0.08,24.0,25.7,"09:12:56",1
"21/08/12","09:30",0.0,25.4,92.8,1007.4,315.2,0.7,1.3,2.6,0.09,24.2,26.1,"09:29:12",1
"21/08/12","09:40",0.0,25.2,92.8,1007.6,352.4,0.8,1.4,11.1,0.04,24.0,25.7,"09:34:48",1
"21/08/12","09:50",0.4,24.9,92.7,1007.8,335.1,1.0,1.8,334.6,0.00,23.7,25.7,"09:42:08",1
"21/08/12","10:00",0.6,24.7,92.7,1007.8,48.0,0.2,0.8,66.1,0.00,23.5,25.7,"09:56:16",1
"21/08/12","10:10",0.4,24.6,92.7,1007.8,228.1,0.3,0.9,311.4,0.00,23.4,25.8,"10:00:02",1
"21/08/12","10:20",1.4,24.7,92.8,1007.6,350.3,0.6,1.0,322.6,0.00,23.5,25.7,"10:10:24",1
"21/08/12","10:30",1.4,24.7,92.8,1007.4,343.7,0.5,1.3,343.6,0.02,23.5,26.1,"10:27:44",1
"21/08/12","10:40",0.8,24.6,92.8,1007.6,336.5,0.7,1.3,340.2,0.03,23.4,25.9,"10:33:20",1
"21/08/12","10:50",0.2,24.6,93.0,1007.6,324.5,0.3,0.8,346.7,0.03,23.4,25.8,"10:40:08",1
"21/08/12","11:00",0.4,24.7,93.0,1007.1,213.7,0.1,0.5,341.4,0.04,23.5,26.1,"10:51:20",1
"21/08/12","11:10",0.8,24.6,92.9,1007.6,214.4,0.3,0.8,136.3,0.01,23.4,25.8,"11:08:48",1
"21/08/12","11:20",4.2,24.4,93.0,1007.4,197.8,1.0,2.2,201.1,0.01,23.2,25.8,"11:13:04",1
"21/08/12","11:30",1.6,24.3,93.2,1007.6,209.9,1.0,1.4,212.4,0.03,23.2,25.8,"11:23:28",1
"21/08/12","11:40",1.8,24.4,93.3,1007.6,245.0,0.5,1.3,187.8,0.04,23.3,25.9,"11:36:24",1
"21/08/12","11:50",0.8,24.3,93.4,1007.6,172.2,0.3,1.0,172.5,0.05,23.2,25.9,"11:40:56",1
"21/08/12","12:00",0.0,24.9,93.6,1007.1,148.4,0.6,1.6,160.9,0.13,23.8,25.9,"11:57:12",1
"21/08/12","12:10",0.0,24.7,93.5,1006.9,165.6,0.8,1.6,132.4,0.11,23.6,25.8,"12:00:32",1
"21/08/12","12:20",0.2,24.8,93.4,1007.1,173.3,0.6,1.2,187.2,0.11,23.7,25.8,"12:16:32",1
"21/08/12","12:30",0.0,24.6,93.3,1007.1,179.1,1.0,2.1,161.7,0.08,23.5,25.8,"12:25:44",1
"21/08/12","12:40",0.0,24.8,93.4,1006.9,177.1,0.5,1.2,209.1,0.07,23.7,25.8,"12:31:12",1
"21/08/12","12:50",0.0,24.8,93.4,1006.9,111.7,0.2,1.0,133.9,0.07,23.7,25.8,"12:40:08",1
"21/08/12","13:00",0.0,24.9,93.3,1006.7,158.0,0.5,1.1,125.6,0.08,23.8,26.0,"12:58:08",1
"21/08/12","13:10",0.2,24.8,93.1,1006.4,180.1,1.0,2.0,222.2,0.06,23.6,25.8,"13:09:36",1
"21/08/12","13:20",0.0,24.5,93.3,1006.4,206.3,1.7,2.9,224.7,0.03,23.4,25.7,"13:12:32",1
"21/08/12","13:30",0.2,24.2,93.2,1006.7,198.0,1.8,4.0,222.5,0.01,23.1,25.8,"13:23:44",1
"21/08/12","13:40",0.2,24.0,93.4,1006.4,189.4,1.7,4.0,200.9,0.02,22.9,25.7,"13:32:48",1
"21/08/12","13:50",0.2,24.0,93.6,1006.4,184.8,1.2,2.6,189.0,0.04,22.9,25.9,"13:40:08",1
"21/08/12","14:00",0.2,24.1,93.7,1006.2,163.4,1.0,2.2,169.8,0.06,23.1,25.7,"13:52:00",1
"21/08/12","14:10",0.0,24.0,93.7,1006.9,181.4,1.0,2.0,136.7,0.04,23.0,26.1,"14:06:24",1
"21/08/12","14:20",0.2,24.1,93.8,1006.9,164.9,1.0,1.9,130.7,0.04,23.1,26.0,"14:10:32",1
"21/08/12","14:30",0.0,24.2,93.8,1006.4,100.0,0.3,1.1,173.7,0.04,23.2,25.8,"14:23:12",1
"21/08/12","14:40",0.0,24.1,93.7,1006.4,193.1,0.7,2.0,226.4,0.05,23.1,26.0,"14:36:24",1
"21/08/12","14:50",0.0,24.2,93.8,1006.4,208.1,0.7,1.6,225.3,0.05,23.2,25.9,"14:46:48",1
"21/08/12","15:00",0.2,24.3,93.7,1006.0,153.5,0.2,0.8,134.7,0.04,23.3,25.9,"14:53:12",1
"21/08/12","15:10",0.0,24.2,93.8,1006.0,175.0,0.1,0.5,194.9,0.03,23.2,25.9,"15:01:20",1
"21/08/12","15:20",0.2,24.3,93.8,1006.4,353.3,0.6,1.1,347.6,0.02,23.3,25.8,"15:13:44",1
"21/08/12","15:30",0.2,24.1,93.8,1006.7,340.5,1.0,1.9,340.1,0.01,23.1,26.0,"15:28:08",1
"21/08/12","15:40",1.8,23.9,93.9,1006.4,346.7,0.6,1.1,6.3,0.00,22.9,25.8,"15:37:36",1
"21/08/12","15:50",0.2,23.9,94.1,1006.4,6.6,0.7,1.7,341.4,0.03,22.9,25.9,"15:46:24",1
"21/08/12","16:00",0.2,24.1,94.1,1006.2,147.1,0.3,1.0,8.1,0.04,23.1,25.9,"15:50:24",1
"21/08/12","16:10",0.0,24.2,94.1,1006.2,150.8,0.3,1.2,126.2,0.05,23.2,25.9,"16:06:08",1
"21/08/12","16:20",0.0,24.3,94.0,1006.2,173.0,0.5,1.0,200.5,0.05,23.3,26.0,"16:16:56",1
"21/08/12","16:30",0.0,24.4,94.1,1006.7,336.8,0.1,0.6,228.9,0.05,23.4,25.7,"16:20:08",1
"21/08/12","16:40",0.0,24.6,94.0,1006.4,70.8,0.2,0.9,134.4,0.05,23.6,26.1,"16:38:16",1
"21/08/12","16:50",0.0,24.6,94.0,1006.2,29.6,0.5,1.3,340.9,0.05,23.6,25.8,"16:49:52",1
"21/08/12","17:00",0.0,24.5,94.0,1006.0,4.7,0.2,0.9,356.4,0.03,23.5,25.8,"16:50:08",1
"21/08/12","17:10",0.0,24.5,94.0,1006.0,350.2,0.3,1.2,341.7,0.01,23.5,25.9,"17:06:56",1
"21/08/12","17:20",0.0,24.5,94.1,1006.0,355.0,0.6,1.4,345.8,0.01,23.5,26.0,"17:12:08",1
"21/08/12","17:30",0.0,24.5,94.1,1006.2,341.2,0.8,1.9,336.0,0.00,23.5,26.0,"17:23:04",1
"21/08/12","17:40",0.0,24.6,94.1,1006.4,324.9,0.6,1.3,330.7,0.01,23.6,26.1,"17:37:52",1
"21/08/12","17:50",0.0,24.6,94.1,1006.2,284.6,0.1,0.6,275.3,0.00,23.6,25.7,"17:40:24",1
"21/08/12","18:00",0.0,24.6,94.1,1006.2,307.6,0.3,0.8,318.1,0.00,23.6,26.0,"17:52:00",1
"21/08/12","18:10",0.0,24.5,94.2,1006.2,227.0,0.3,0.9,237.4,0.00,23.5,26.0,"18:07:04",1
"21/08/12","18:20",0.0,24.5,94.2,1006.2,267.9,0.3,0.8,313.9,0.00,23.5,25.9,"18:15:36",1
"21/08/12","18:30",0.0,24.5,94.2,1006.2,286.1,0.3,1.1,315.2,0.00,23.5,26.0,"18:24:00",1
"21/08/12","18:40",0.0,24.4,94.2,1006.4,264.3,0.2,0.8,255.1,0.00,23.4,26.1,"18:30:48",1
"21/08/12","18:50",0.0,24.4,94.3,1006.4,316.8,0.3,0.9,349.9,0.00,23.5,25.8,"18:42:16",1
"21/08/12","19:00",0.0,24.5,94.3,1006.4,6.3,0.5,1.0,2.4,0.00,23.6,25.7,"18:53:44",1
"21/08/12","19:10",0.0,24.4,94.4,1006.2,313.9,0.8,1.6,229.6,0.00,23.5,26.0,"19:04:24",1
"21/08/12","19:20",0.0,24.3,94.4,1006.7,315.2,0.7,1.0,320.8,0.00,23.4,26.1,"19:11:12",1
"21/08/12","19:30",0.0,24.1,94.4,1007.1,293.9,0.5,1.0,268.1,0.00,23.2,25.9,"19:28:48",1
"21/08/12","19:40",0.0,23.9,94.5,1006.7,311.1,0.8,1.4,340.4,0.00,23.0,26.1,"19:35:20",1
"21/08/12","19:50",0.0,23.7,94.7,1006.9,328.4,0.8,1.4,314.4,0.00,22.8,25.8,"19:48:48",1
"21/08/12","20:00",0.0,23.7,94.7,1006.7,327.3,0.5,1.1,324.0,0.00,22.8,25.8,"19:51:28",1
"21/08/12","20:10",0.0,23.5,94.7,1007.1,303.5,0.5,1.0,321.9,0.00,22.6,25.8,"20:00:56",1
"21/08/12","20:20",0.0,23.4,94.8,1007.1,268.3,0.7,1.2,244.0,0.00,22.6,25.8,"20:13:36",1
"21/08/12","20:30",0.0,23.4,94.9,1007.1,322.1,0.8,1.2,306.6,0.00,22.6,25.9,"20:20:24",1
"21/08/12","20:40",0.0,23.3,94.9,1007.4,334.2,0.5,1.1,326.3,0.00,22.5,25.7,"20:34:48",1
"21/08/12","20:50",0.0,23.3,95.0,1007.4,326.6,1.2,1.4,337.0,0.00,22.5,26.0,"20:40:24",1
"21/08/12","21:00",0.0,23.3,95.0,1007.4,322.6,0.8,1.3,301.6,0.00,22.5,25.7,"20:59:44",1
"21/08/12","21:10",0.0,23.2,95.1,1007.4,313.9,1.3,2.5,341.9,0.00,22.4,25.8,"21:09:20",1
"21/08/12","21:20",0.0,23.1,95.1,1007.6,310.6,0.5,1.9,343.9,0.00,22.3,25.8,"21:10:16",1
"21/08/12","21:30",0.0,23.1,95.2,1007.6,237.8,0.3,0.8,115.4,0.00,22.3,25.5,"21:20:56",1
"21/08/12","21:40",0.0,23.0,95.2,1007.4,294.6,1.0,1.7,307.8,0.00,22.2,25.6,"21:37:36",1
"21/08/12","21:50",0.0,23.1,95.3,1007.6,321.8,1.5,2.5,342.6,0.00,22.3,25.7,"21:47:04",1
"21/08/12","22:00",0.0,23.0,95.3,1007.4,309.0,1.0,2.0,329.3,0.00,22.2,25.7,"21:50:08",1
"21/08/12","22:10",0.0,22.9,95.4,1007.4,319.3,1.2,1.8,301.2,0.00,22.2,25.6,"22:03:12",1
"21/08/12","22:20",0.0,22.8,95.4,1007.4,251.7,0.2,1.3,312.8,0.00,22.1,25.8,"22:10:32",1
"21/08/12","22:30",0.0,22.8,95.4,1007.4,270.6,0.8,1.3,240.9,0.00,22.1,25.6,"22:25:44",1
"21/08/12","22:40",0.0,22.9,95.5,1007.4,306.9,1.0,1.3,319.4,0.00,22.2,25.9,"22:35:36",1
"21/08/12","22:50",0.0,22.9,95.5,1006.9,332.0,0.8,1.3,329.4,0.00,22.2,25.7,"22:49:28",1
"21/08/12","23:00",0.0,22.9,95.5,1007.4,332.9,0.8,1.2,341.3,0.00,22.2,25.7,"22:58:24",1
"21/08/12","23:10",0.0,22.9,95.6,1007.1,294.3,0.5,0.8,282.6,0.00,22.2,25.6,"23:00:08",1
"21/08/12","23:20",0.0,22.9,95.6,1007.1,321.4,1.0,1.4,315.6,0.00,22.2,25.7,"23:16:16",1
"21/08/12","23:30",0.0,22.9,95.6,1007.1,292.8,0.7,1.2,321.3,0.00,22.2,25.5,"23:22:08",1
"21/08/12","23:40",0.0,22.9,95.6,1006.9,278.0,0.8,1.3,309.6,0.00,22.2,25.6,"23:39:52",1
"21/08/12","23:50",0.0,22.8,95.7,1007.1,324.0,1.1,1.6,325.1,0.00,22.1,25.5,"23:43:44",1
"21/08/12","24:00",0.0,22.9,95.7,1006.7,337.9,1.0,1.8,334.9,0.00,22.2,25.5,"23:50:56",1
